Location: Bonac
(42.8765°N, 0.9753°E)
Time: 14:01:39
(UTC+00:00)

YAOGAN 1 - Visible Passes

Search period start: 19 April 2026 00:00
Search period end: 29 April 2026 00:00
Orbit: 604 x 606 km, 97.8° (Epoch: 19 April)

Date Brightness Start Highest point End Pass type
(mag) Time Alt. Az. Time Alt. Az. Time Alt. Az.
20 Apr 5.0 19:09:54 10° SSW 19:13:27 26° W 19:17:01 10° NW visible
21 Apr 5.4 19:23:13 10° SW 19:26:15 19° W 19:29:17 10° NW visible
22 Apr 5.6 19:36:50 10° WSW 19:39:04 14° W 19:41:18 10° WNW visible
28 Apr 5.2 19:15:53 10° SW 19:19:13 22° W 19:22:34 10° NW visible
